[[[{"header":{"parameterUnit":"kt","parameterCategory":2,"dx":1,"dy":1,"la1":30.253999710083008,"la2":30.299108505249023,"lo1":-89.0895004272461,"lo2":-89.04439544677734,"nx":28,"ny":28,"refTime":"2022-09-24T21:00:00:Z","depth":"0","parameterNumber":2,"parameterNumberName":"U-component_of_CURRENTS"},"data":[-0.134,-0.1283,-0.129,-0.1249,-0.122,-0.1195,-0.1217,-0.127,-0.148,-0.1961,-0.2552,-0.2957,-0.3311,-0.3852,-0.3809,-0.3569,-0.3394,-0.3435,-0.3114,-0.3047,-0.2993,-0.2941,-0.3077,-0.3453,-0.3454,-0.3471,-0.3472,-0.3473,-0.1429,-0.1439,-0.14,-0.132,-0.1316,-0.1329,-0.1376,-0.1354,-0.1415,-0.1751,-0.1896,-0.257,-0.2775,-0.2884,-0.309,-0.2981,-0.2856,-0.2818,-0.2971,-0.2847,-0.2601,-0.274,-0.3051,-0.3051,-0.305,-0.305,-0.305,-0.305,-0.1576,-0.1549,-0.145,-0.1386,-0.1393,-0.1419,-0.1382,-0.1438,-0.148,-0.1609,-0.1684,-0.1931,-0.2182,-0.2196,-0.2085,-0.2214,-0.2005,-0.2243,-0.2233,-0.2241,-0.2293,-0.1996,-0.212,-0.2116,-0.2113,-0.211,-0.2108,0,-0.1612,-0.1583,-0.1544,-0.1432,-0.1424,-0.1422,-0.1406,-0.1424,-0.1418,-0.1478,-0.156,-0.1616,-0.1644,-0.1801,-0.1724,-0.165,-0.1657,-0.1591,-0.1626,-0.2178,-0.2261,-0.2233,-0.1872,-0.1917,-0.1912,-0.1908,-0.1905,-0.1903,-0.1638,-0.1591,-0.1502,-0.1487,-0.1483,-0.1426,-0.14,-0.1378,-0.1366,-0.14,-0.1437,-0.1456,-0.1482,-0.1386,-0.1399,-0.1319,-0.1299,-0.1477,-0.1571,-0.1636,-0.1684,-0.1726,-0.1674,-0.1849,-0.1856,-0.1861,-0.1866,0,-0.1687,-0.1639,-0.1558,-0.1499,-0.1484,-0.1441,-0.1416,-0.1376,-0.1351,-0.1351,-0.1382,-0.1386,-0.1358,-0.129,-0.1216,-0.1194,-0.1241,-0.1141,-0.1414,-0.1486,-0.1628,-0.1647,-0.1715,-0.1662,-0.1156,-0.1157,-0.1159,0,-0.1739,-0.1677,-0.1622,-0.1582,-0.1518,-0.1475,-0.1399,-0.1348,-0.132,-0.1313,-0.1297,-0.1318,-0.128,-0.1257,-0.1202,-0.1179,-0.1134,-0.1192,-0.123,-0.1487,-0.1518,-0.1589,-0.162,-0.1119,-0.112,-0.1121,-0.1122,0,-0.183,-0.173,-0.1644,-0.161,-0.1533,-0.1507,-0.1456,-0.1371,-0.1337,-0.1281,-0.1317,-0.1251,-0.1287,-0.1232,-0.1228,-0.1254,-0.1158,-0.1215,-0.1251,-0.1257,-0.1491,-0.1523,-0.1562,-0.1123,-0.1123,-0.1124,-0.1124,0,-0.1896,-0.1855,-0.1728,-0.1669,-0.1635,-0.1574,-0.1469,-0.1382,-0.1321,-0.1308,-0.1287,-0.1328,-0.1287,-0.1322,-0.1246,-0.1298,-0.128,-0.1282,-0.128,-0.1367,-0.1465,-0.1626,-0.1625,-0.1706,-0.1285,-0.1287,-0.1288,0,-0.2022,-0.1905,-0.1877,-0.176,-0.1679,-0.1645,-0.1558,-0.1489,-0.1435,-0.1409,-0.1394,-0.1387,-0.1381,-0.1415,-0.1369,-0.1406,-0.1342,-0.1402,-0.139,-0.1387,-0.148,-0.1426,-0.1719,-0.1636,-0.1309,-0.1307,-0.1305,0,-0.2092,-0.2008,-0.1988,-0.1948,-0.1845,-0.1806,-0.1689,-0.1602,-0.1557,-0.152,-0.1498,-0.1409,-0.1473,-0.1434,-0.1463,-0.1433,-0.1376,-0.1482,-0.1483,-0.1424,-0.1341,-0.1442,-0.1437,-0.1457,-0.1455,-0.1453,-0.1322,0,-0.2176,-0.2098,-0.2069,-0.195,-0.1919,-0.1854,-0.1775,-0.1739,-0.1725,-0.1714,-0.1657,-0.1615,-0.1592,-0.1604,-0.1572,-0.1533,-0.1543,-0.1605,-0.1606,-0.1566,-0.1515,-0.1502,-0.1666,-0.1667,-0.1667,-0.1668,0,0,-0.2263,-0.2151,-0.2117,-0.2062,-0.2037,-0.2022,-0.1947,-0.1907,-0.1858,-0.1844,-0.1834,-0.1787,-0.1747,-0.1661,-0.1632,-0.1641,-0.1635,-0.1625,-0.1594,-0.1586,-0.1579,-0.1527,-0.1514,-0.1669,-0.1669,-0.1669,-0.167,0,-0.2263,-0.2199,-0.2124,-0.2093,-0.2068,-0.2045,-0.2029,-0.2015,-0.1987,-0.1898,-0.1905,-0.1867,-0.1788,-0.1745,-0.1709,-0.1653,-0.1673,-0.1687,-0.1601,-0.1601,-0.1592,-0.1584,-0.1532,-0.152,-0.1671,-0.1671,-0.1671,0,-0.2285,-0.2247,-0.219,-0.2116,-0.2121,-0.2057,-0.2112,-0.2088,-0.2025,-0.2025,-0.1946,-0.1943,-0.1879,-0.1799,-0.1761,-0.1762,-0.1682,-0.1722,-0.1719,-0.1669,-0.1669,-0.1659,-0.165,-0.1762,-0.1762,-0.1762,0,0,-0.2293,-0.2214,-0.2159,-0.211,-0.2091,-0.2116,-0.213,-0.2108,-0.2064,-0.2044,-0.2011,-0.1959,-0.1898,-0.1842,-0.1795,-0.1729,-0.1709,-0.1732,-0.1728,-0.1724,-0.1674,-0.1672,-0.1662,-0.1763,-0.1763,-0.1763,0,0,-0.2303,-0.22,-0.2184,-0.2101,-0.2087,-0.2104,-0.2118,-0.2134,-0.208,-0.2058,-0.202,-0.1991,-0.1901,-0.1877,-0.1889,-0.1814,-0.1834,-0.1829,-0.1814,-0.1809,-0.1805,-0.1753,-0.1896,0,0,0,0,0,-0.2265,-0.2208,-0.2195,-0.218,-0.2131,-0.2112,-0.212,-0.2127,-0.2157,-0.2131,-0.2059,-0.2063,-0.1862,-0.187,-0.1857,-0.1855,-0.1774,-0.1772,-0.177,-0.1738,-0.1732,-0.1727,0,0,0,0,0,0,-0.2259,-0.2232,-0.22,-0.22,-0.2193,-0.2114,-0.2132,-0.2136,-0.2154,-0.2148,-0.2081,-0.2062,-0.2014,-0.1877,-0.1865,-0.1864,-0.19,-0.1773,-0.1771,-0.177,-0.1736,-0.1731,-0.1727,0,0,0,0,0,-0.2255,-0.2234,-0.2113,-0.2207,-0.22,-0.2214,-0.2129,-0.2131,-0.214,-0.2084,-0.2068,-0.2138,-0.2018,-0.1999,-0.187,-0.187,-0.1908,-0.1903,-0.1772,-0.1771,-0.1769,-0.1734,0,0,0,0,0,0,-0.2252,-0.227,-0.2117,-0.2123,-0.2176,-0.2218,-0.2207,-0.2128,-0.207,-0.2061,-0.2135,-0.213,-0.2021,-0.2006,-0.1993,-0.1874,-0.1915,-0.191,-0.1907,-0.1771,-0.177,-0.1769,0,0,0,0,0,0,-0.2283,-0.2272,-0.212,-0.208,-0.2081,-0.2221,-0.221,-0.2172,-0.2063,-0.2121,-0.2119,-0.2132,-0.1984,-0.2011,-0.2,-0.1949,-0.192,-0.1915,-0.1912,-0.191,-0.177,-0.1769,0,0,0,0,0,0,-0.2282,-0.2273,-0.2078,-0.2079,-0.208,-0.2146,-0.2186,-0.2096,-0.2146,-0.2119,-0.2138,-0.2134,-0.1986,-0.1978,-0.2006,-0.196,-0.1951,-0.192,-0.1917,-0.1915,-0.1913,0,0,0,0,0,0,0,-0.2282,-0.2294,-0.2082,-0.2079,-0.2079,-0.2178,-0.2179,-0.2181,-0.2145,-0.2142,-0.2138,-0.2135,-0.1944,-0.1939,-0.1935,-0.1969,0,0,-0.192,-0.1918,0,0,0,0,0,0,0,0,-0.2303,-0.2296,-0.2083,-0.2084,-0.2085,-0.2178,-0.2179,-0.218,-0.2144,-0.2142,-0.2139,-0.2137,-0.1943,-0.1939,-0.1935,0,0,0,0,0,0,0,0,0,0,0,0,0,0,0,-0.2083,-0.2084,0,-0.2178,-0.2179,-0.218,-0.2144,-0.2142,-0.214,-0.2138,-0.1942,-0.1939,-0.1936,0,0,0,0,0,0,0,0,0,0,0,0,0,0,0,0,0,0,0,0,0,0,0,0,0,0,0,0,0,0,0,0,0,0,0,0,0,0,0,0,0,0,0,0,0,0,0,0,0,0,0,0,0,0,0,0,0,0,0,0,0,0,0,0,0,0,0,0,0]}],[{"header":{"parameterUnit":"kt","parameterCategory":2,"dx":1,"dy":1,"la1":30.253999710083008,"la2":30.299108505249023,"lo1":-89.0895004272461,"lo2":-89.04439544677734,"nx":28,"ny":28,"refTime":"2022-09-24T21:00:00:Z","depth":"0","parameterNumber":3,"parameterNumberName":"V-component_of_CURRENTS"},"data":[-0.1649,-0.1681,-0.171,-0.1873,-0.195,-0.2064,-0.21,-0.2134,-0.2186,-0.2082,-0.1863,-0.1695,-0.0536,0.1208,0.2061,0.206,0.2296,0.2371,0.2386,0.1793,0.171,0.1631,0.1702,0.2429,0.243,0.3226,0.3233,0.3239,-0.1697,-0.175,-0.1759,-0.178,-0.1909,-0.1869,-0.1934,-0.1994,-0.2062,-0.2063,-0.1962,-0.1295,-0.0577,0.0014,0.0848,0.114,0.1177,0.1251,0.1472,0.1463,0.0629,0.0674,0.1194,0.1194,0.1193,0.1193,0.1193,0.1192,-0.175,-0.1764,-0.174,-0.1734,-0.1768,-0.1795,-0.1839,-0.1885,-0.199,-0.2051,-0.1827,-0.1594,-0.0898,-0.0437,-0.0262,0.0253,0.0124,0.0306,0.0403,0.0524,0.0659,-0.0238,0.0058,0.0056,0.0054,0.0053,0.0051,0,-0.1751,-0.176,-0.1739,-0.1677,-0.1674,-0.169,-0.1762,-0.1835,-0.1917,-0.1915,-0.1812,-0.1656,-0.1206,-0.0854,-0.0588,-0.0534,-0.031,-0.0517,-0.0257,0.0037,0.0285,0.0377,-0.0683,-0.045,-0.0455,-0.0459,-0.0462,-0.0464,-0.1724,-0.1717,-0.1623,-0.1607,-0.1579,-0.162,-0.1675,-0.1766,-0.1835,-0.1795,-0.182,-0.1617,-0.1436,-0.1138,-0.0973,-0.0833,-0.0729,-0.0641,-0.0748,-0.0439,-0.0301,-0.0151,-0.0094,-0.0519,-0.0512,-0.0507,-0.0502,0,-0.1745,-0.1634,-0.1594,-0.1541,-0.1527,-0.1595,-0.1733,-0.1767,-0.1795,-0.182,-0.1815,-0.1692,-0.15,-0.1446,-0.134,-0.1293,-0.0988,-0.1161,-0.0986,-0.0933,-0.054,-0.0437,0.0073,0.018,-0.0938,-0.0933,-0.0929,0,-0.1618,-0.1613,-0.1462,-0.1478,-0.1509,-0.1623,-0.1688,-0.1733,-0.1818,-0.1837,-0.176,-0.1715,-0.1667,-0.1589,-0.1581,-0.1418,-0.1478,-0.1402,-0.1366,-0.1256,-0.1232,-0.1032,-0.0931,-0.1571,-0.1573,-0.1574,-0.1575,0,-0.1555,-0.1517,-0.1495,-0.1533,-0.1618,-0.1657,-0.1768,-0.1858,-0.1917,-0.1815,-0.1798,-0.1742,-0.1694,-0.1692,-0.1633,-0.1689,-0.1531,-0.1601,-0.1438,-0.1424,-0.1335,-0.1314,-0.0869,-0.1577,-0.1578,-0.1578,-0.1579,0,-0.1515,-0.1439,-0.1465,-0.1512,-0.1575,-0.1667,-0.1826,-0.1893,-0.1899,-0.1858,-0.1831,-0.1825,-0.1783,-0.1826,-0.1745,-0.1779,-0.1747,-0.1726,-0.1719,-0.1657,-0.1643,-0.1329,-0.114,-0.0865,-0.1608,-0.1609,-0.161,0,-0.1508,-0.1447,-0.1448,-0.155,-0.1613,-0.1768,-0.1847,-0.1932,-0.1944,-0.1927,-0.1898,-0.187,-0.1892,-0.1872,-0.1859,-0.1814,-0.1782,-0.1844,-0.1812,-0.1811,-0.1661,-0.1521,-0.1366,-0.1175,-0.1625,-0.1624,-0.1623,0,-0.1517,-0.1417,-0.1445,-0.1472,-0.1673,-0.1769,-0.1844,-0.1953,-0.1938,-0.1972,-0.1942,-0.1923,-0.1909,-0.1927,-0.1922,-0.1916,-0.1799,-0.1938,-0.1941,-0.1831,-0.1711,-0.1559,-0.1533,-0.1825,-0.1825,-0.1824,-0.1635,0,-0.1601,-0.1512,-0.1501,-0.1573,-0.1681,-0.1755,-0.1928,-0.1941,-0.1976,-0.1993,-0.1966,-0.195,-0.1971,-0.1977,-0.1963,-0.1953,-0.1943,-0.1991,-0.2052,-0.1995,-0.1916,-0.1906,-0.2076,-0.2079,-0.2082,-0.2084,0,0,-0.1727,-0.1569,-0.1568,-0.1594,-0.1714,-0.1873,-0.1961,-0.1951,-0.2029,-0.2006,-0.2014,-0.2024,-0.2045,-0.2026,-0.1996,-0.2011,-0.1996,-0.2097,-0.2031,-0.2024,-0.2019,-0.194,-0.1927,-0.2088,-0.2089,-0.209,-0.2091,0,-0.1777,-0.1652,-0.155,-0.1647,-0.1802,-0.1898,-0.1929,-0.2044,-0.2007,-0.202,-0.2015,-0.1998,-0.2063,-0.2066,-0.2079,-0.2035,-0.2108,-0.2088,-0.2067,-0.2052,-0.2042,-0.2033,-0.1953,-0.194,-0.2097,-0.2097,-0.2097,0,-0.1922,-0.1899,-0.182,-0.1822,-0.1907,-0.2009,-0.203,-0.2068,-0.2096,-0.2099,-0.2072,-0.207,-0.2112,-0.2109,-0.2129,-0.217,-0.2185,-0.2223,-0.2213,-0.2262,-0.2252,-0.224,-0.223,-0.2359,-0.2359,-0.2359,0,0,-0.2005,-0.1836,-0.2,-0.1875,-0.1948,-0.2043,-0.2058,-0.2084,-0.21,-0.2051,-0.2093,-0.2118,-0.2123,-0.2148,-0.2177,-0.2197,-0.2219,-0.2247,-0.2235,-0.2224,-0.2265,-0.2254,-0.2243,-0.2359,-0.2359,-0.2359,0,0,-0.2089,-0.21,-0.214,-0.1961,-0.2099,-0.2185,-0.2143,-0.2165,-0.2073,-0.2042,-0.2098,-0.2107,-0.2111,-0.218,-0.2168,-0.2244,-0.2307,-0.2309,-0.2174,-0.216,-0.2149,-0.2182,-0.2276,0,0,0,0,0,-0.2313,-0.2124,-0.2161,-0.2161,-0.2093,-0.219,-0.2183,-0.2182,-0.2154,-0.2092,-0.2059,-0.215,-0.2177,-0.2165,-0.2182,-0.221,-0.2362,-0.2362,-0.2361,-0.2193,-0.2177,-0.2164,0,0,0,0,0,0,-0.2315,-0.23,-0.2174,-0.2252,-0.2249,-0.2184,-0.2175,-0.2163,-0.2158,-0.2147,-0.2138,-0.2151,-0.2182,-0.2165,-0.2178,-0.2204,-0.2272,-0.2362,-0.2362,-0.2361,-0.2187,-0.2175,-0.2164,0,0,0,0,0,-0.2318,-0.2308,-0.2168,-0.2253,-0.2248,-0.2281,-0.217,-0.2162,-0.2069,-0.2201,-0.22,-0.2089,-0.218,-0.2196,-0.2174,-0.2197,-0.2264,-0.2268,-0.2362,-0.2361,-0.2361,-0.2181,0,0,0,0,0,0,-0.2321,-0.2209,-0.2168,-0.2175,-0.2279,-0.228,-0.2259,-0.216,-0.2115,-0.2125,-0.2164,-0.2159,-0.2179,-0.2191,-0.2202,-0.2189,-0.2257,-0.2262,-0.2265,-0.2362,-0.2361,-0.2361,0,0,0,0,0,0,-0.2224,-0.2208,-0.2168,-0.2197,-0.2202,-0.2279,-0.2262,-0.2309,-0.2118,-0.2065,-0.2068,-0.2165,-0.2267,-0.2188,-0.2197,-0.2261,-0.2252,-0.2256,-0.2259,-0.2261,-0.2361,-0.2361,0,0,0,0,0,0,-0.2221,-0.2208,-0.2189,-0.2194,-0.2198,-0.2214,-0.2325,-0.2267,-0.2082,-0.2063,-0.2084,-0.2086,-0.2273,-0.2273,-0.2193,-0.2253,-0.2259,-0.2252,-0.2255,-0.2257,-0.2259,0,0,0,0,0,0,0,-0.2218,-0.2267,-0.2212,-0.2192,-0.2195,-0.2252,-0.2245,-0.2239,-0.2082,-0.2083,-0.2084,-0.2085,-0.2228,-0.2232,-0.2237,-0.2246,0,0,-0.2252,-0.2254,0,0,0,0,0,0,0,0,-0.2276,-0.2269,-0.2213,-0.2219,-0.2225,-0.2251,-0.2245,-0.224,-0.2082,-0.2083,-0.2084,-0.2085,-0.2229,-0.2233,-0.2237,0,0,0,0,0,0,0,0,0,0,0,0,0,0,0,-0.2214,-0.2218,0,-0.225,-0.2246,-0.2241,-0.2082,-0.2083,-0.2084,-0.2084,-0.223,-0.2233,-0.2236,0,0,0,0,0,0,0,0,0,0,0,0,0,0,0,0,0,0,0,0,0,0,0,0,0,0,0,0,0,0,0,0,0,0,0,0,0,0,0,0,0,0,0,0,0,0,0,0,0,0,0,0,0,0,0,0,0,0,0,0,0,0,0,0,0,0,0,0,0]}]],[[{"header":{"parameterUnit":"kt","parameterCategory":2,"dx":1,"dy":1,"la1":30.253999710083008,"la2":30.299108505249023,"lo1":-89.0895004272461,"lo2":-89.04439544677734,"nx":28,"ny":28,"refTime":"2022-09-24T21:00:00:Z","depth":"2","parameterNumber":2,"parameterNumberName":"U-component_of_CURRENTS"},"data":[-0.0793,-0.0778,-0.0775,-0.0748,-0.0734,-0.0678,-0.0681,-0.08,-0.1043,-0.1461,-0.1803,-0.2345,-0.2232,-0.2105,-0.1922,-0.1725,-0.1504,-0.1607,-0.1614,-0.1526,-0.1508,-0.1298,-0.135,0,0,0,0,0,-0.0838,-0.084,-0.0813,-0.077,-0.074,-0.0758,-0.0756,-0.0744,-0.0894,-0.1323,-0.1631,-0.1779,-0.1994,-0.1883,-0.1769,-0.1693,-0.159,-0.1431,-0.1345,-0.1328,-0.131,-0.135,-0.1491,-0.149,-0.1489,-0.1488,0,0,-0.0918,-0.0874,-0.0814,-0.0798,-0.0795,-0.0791,-0.0758,-0.0799,-0.0841,-0.1081,-0.1229,-0.1596,-0.1681,-0.1836,-0.1671,-0.1453,-0.149,-0.1307,-0.1295,-0.1281,-0.1326,-0.1339,-0.1458,-0.1457,-0.1457,-0.1456,-0.1455,0,-0.0956,-0.0877,-0.0856,-0.0819,-0.0798,-0.0786,-0.0783,-0.0736,-0.0743,-0.0843,-0.1037,-0.1205,-0.1413,-0.1535,-0.149,-0.1393,-0.1104,-0.1148,-0.0975,-0.1108,-0.1113,-0.1136,-0.1126,-0.1184,-0.1182,-0.118,-0.1178,-0.1178,-0.1007,-0.0941,-0.0862,-0.0851,-0.0847,-0.0821,-0.0829,-0.0783,-0.0719,-0.086,-0.085,-0.1003,-0.1141,-0.1178,-0.1205,-0.1156,-0.0969,-0.1085,-0.1105,-0.095,-0.0975,-0.0972,-0.0969,-0.1152,-0.1155,-0.1158,-0.116,0,-0.1026,-0.1,-0.0905,-0.0865,-0.0889,-0.0846,-0.0814,-0.0767,-0.0787,-0.0776,-0.0791,-0.0856,-0.0969,-0.0894,-0.0909,-0.0883,-0.0875,-0.0884,-0.0925,-0.0964,-0.095,-0.0951,-0.0986,-0.099,-0.0993,-0.0995,-0.0998,0,-0.1075,-0.1009,-0.0976,-0.0929,-0.0912,-0.0861,-0.0824,-0.0808,-0.0736,-0.0738,-0.0743,-0.0774,-0.0759,-0.0768,-0.0729,-0.0797,-0.0752,-0.0842,-0.0873,-0.0914,-0.0927,-0.0669,-0.066,-0.0754,-0.0754,-0.0754,-0.0754,0,-0.1127,-0.1048,-0.0992,-0.0949,-0.0893,-0.0863,-0.0838,-0.078,-0.0712,-0.0688,-0.072,-0.0672,-0.0715,-0.0694,-0.0723,-0.0741,-0.0766,-0.0784,-0.0855,-0.0862,-0.0826,-0.0832,-0.0754,-0.0754,-0.0754,-0.0754,-0.0754,0,-0.1174,-0.1131,-0.1049,-0.0996,-0.0997,-0.0912,-0.0842,-0.0748,-0.0688,-0.067,-0.0647,-0.0645,-0.0639,-0.0646,-0.0671,-0.0706,-0.072,-0.0753,-0.0755,-0.0743,-0.0785,-0.0933,-0.0969,-0.0784,-0.0784,-0.0784,-0.0785,0,-0.1286,-0.1181,-0.1125,-0.1022,-0.1006,-0.0941,-0.0872,-0.0763,-0.0713,-0.0643,-0.0636,-0.0621,-0.0618,-0.0663,-0.0668,-0.0723,-0.0723,-0.0724,-0.0687,-0.0682,-0.0877,-0.0901,-0.0959,-0.0966,-0.0787,-0.0787,-0.0787,0,-0.1327,-0.1257,-0.1235,-0.1189,-0.1075,-0.0999,-0.0924,-0.0813,-0.0781,-0.0681,-0.0624,-0.0627,-0.064,-0.06,-0.061,-0.0631,-0.0724,-0.0661,-0.0657,-0.0765,-0.0786,-0.0891,-0.0899,-0.0799,-0.0798,-0.0798,-0.0789,0,-0.1313,-0.1254,-0.1279,-0.1136,-0.1079,-0.104,-0.091,-0.0847,-0.0809,-0.0716,-0.0687,-0.0677,-0.0615,-0.0618,-0.0642,-0.0627,-0.0633,-0.063,-0.0642,-0.0616,-0.0603,-0.0602,-0.0551,-0.0547,-0.0544,-0.0541,0,0,-0.1373,-0.1249,-0.1212,-0.1144,-0.1094,-0.1024,-0.0961,-0.0887,-0.0735,-0.0716,-0.074,-0.0655,-0.0647,-0.0633,-0.0635,-0.0596,-0.0609,-0.0603,-0.058,-0.0585,-0.0589,-0.0582,-0.0585,-0.0536,-0.0534,-0.0533,-0.0532,0,-0.1301,-0.1264,-0.1234,-0.1147,-0.1058,-0.0991,-0.0971,-0.0855,-0.0824,-0.073,-0.0751,-0.0762,-0.0673,-0.0661,-0.0645,-0.0574,-0.0589,-0.0534,-0.0537,-0.0555,-0.0565,-0.0572,-0.0568,-0.0573,-0.0524,-0.0525,-0.0525,0,-0.1266,-0.1164,-0.1138,-0.098,-0.0968,-0.09,-0.0877,-0.086,-0.0757,-0.0791,-0.0741,-0.0761,-0.0703,-0.0689,-0.0666,-0.0644,-0.0566,-0.0561,-0.0568,-0.0508,-0.0522,-0.053,-0.0537,-0.0473,-0.0475,-0.0477,0,0,-0.122,-0.1164,-0.1006,-0.0951,-0.0961,-0.0865,-0.0846,-0.0803,-0.0778,-0.0795,-0.0763,-0.073,-0.0721,-0.0716,-0.0674,-0.0622,-0.058,-0.0574,-0.0576,-0.0579,-0.0523,-0.0535,-0.054,-0.0483,-0.0483,-0.0483,0,0,-0.1213,-0.1057,-0.099,-0.0941,-0.0831,-0.0743,-0.0815,-0.0735,-0.0754,-0.0821,-0.0803,-0.0811,-0.0812,-0.0727,-0.0817,-0.0678,-0.0635,-0.0618,-0.0834,-0.0835,-0.0836,-0.0805,-0.0843,0,0,0,0,0,-0.105,-0.1052,-0.0989,-0.0961,-0.0827,-0.0724,-0.0717,-0.0741,-0.0775,-0.0775,-0.0811,-0.0822,-0.076,-0.0843,-0.0834,-0.0842,-0.0567,-0.0552,-0.0538,-0.0797,-0.0799,-0.08,0,0,0,0,0,0,-0.1038,-0.0998,-0.0991,-0.0886,-0.0857,-0.0726,-0.0779,-0.0785,-0.0779,-0.0792,-0.0814,-0.0821,-0.084,-0.0847,-0.0839,-0.0847,-0.0846,-0.0561,-0.0548,-0.0537,-0.0798,-0.0799,-0.08,0,0,0,0,0,-0.1028,-0.0997,-0.077,-0.089,-0.0865,-0.0863,-0.0785,-0.079,-0.0805,-0.0801,-0.0811,-0.0829,-0.0836,-0.0835,-0.0842,-0.0852,-0.0851,-0.0848,-0.0553,-0.0543,-0.0534,-0.0798,0,0,0,0,0,0,-0.1021,-0.1024,-0.0767,-0.0762,-0.0935,-0.0876,-0.0864,-0.0794,-0.0818,-0.0823,-0.0815,-0.0824,-0.0833,-0.0832,-0.0831,-0.0855,-0.0855,-0.0852,-0.0851,-0.0545,-0.0537,-0.0531,0,0,0,0,0,0,-0.1041,-0.1019,-0.0765,-0.082,-0.0822,-0.0887,-0.0876,-0.0829,-0.082,-0.0834,-0.0841,-0.0819,-0.0847,-0.083,-0.0829,-0.0754,-0.0859,-0.0856,-0.0854,-0.0853,-0.0539,-0.0533,0,0,0,0,0,0,-0.1033,-0.1014,-0.0822,-0.0823,-0.0825,-0.0778,-0.0851,-0.0728,-0.0825,-0.0835,-0.0837,-0.0843,-0.0843,-0.0843,-0.0827,-0.0752,-0.0753,-0.0859,-0.0857,-0.0855,-0.0854,0,0,0,0,0,0,0,-0.1027,-0.1132,-0.0786,-0.0826,-0.0829,-0.0713,-0.0713,-0.0712,-0.0826,-0.0831,-0.0836,-0.0841,-0.0875,-0.0872,-0.0869,-0.075,0,0,-0.0859,-0.0857,0,0,0,0,0,0,0,0,-0.1142,-0.1135,-0.0786,-0.0784,-0.0783,-0.0713,-0.0713,-0.0712,-0.0827,-0.0831,-0.0835,-0.0839,-0.0874,-0.0871,-0.0869,0,0,0,0,0,0,0,0,0,0,0,0,0,0,0,-0.0786,-0.0785,0,-0.0713,-0.0713,-0.0713,-0.0827,-0.0831,-0.0834,-0.0837,-0.0873,-0.0871,-0.0869,0,0,0,0,0,0,0,0,0,0,0,0,0,0,0,0,0,0,0,0,0,0,0,0,0,0,0,0,0,0,0,0,0,0,0,0,0,0,0,0,0,0,0,0,0,0,0,0,0,0,0,0,0,0,0,0,0,0,0,0,0,0,0,0,0,0,0,0,0]}],[{"header":{"parameterUnit":"kt","parameterCategory":2,"dx":1,"dy":1,"la1":30.253999710083008,"la2":30.299108505249023,"lo1":-89.0895004272461,"lo2":-89.04439544677734,"nx":28,"ny":28,"refTime":"2022-09-24T21:00:00:Z","depth":"2","parameterNumber":3,"parameterNumberName":"V-component_of_CURRENTS"},"data":[-0.0607,-0.0674,-0.0648,-0.0774,-0.0816,-0.0861,-0.0823,-0.0764,-0.0719,-0.0748,-0.0698,-0.0409,0.0276,0.0583,0.1023,0.1118,0.0849,0.1107,0.0787,0.0511,0.0451,0.064,0.0799,0,0,0,0,0,-0.0585,-0.055,-0.0532,-0.055,-0.0648,-0.0582,-0.0453,-0.0475,-0.0531,-0.0492,-0.0501,0.0005,0.0364,0.0605,0.0872,0.1132,0.1019,0.1106,0.0951,0.0897,0.0847,0.0977,0.139,0.1389,0.1388,0.1388,0,0,-0.0428,-0.0441,-0.043,-0.0438,-0.0424,-0.0363,-0.0402,-0.0351,-0.03,-0.0301,-0.0175,-0.0234,0.0188,0.0404,0.0635,0.0702,0.0566,0.0591,0.0561,0.0525,0.0652,0.0722,0.0973,0.097,0.0968,0.0966,0.0964,0,-0.0364,-0.0317,-0.0309,-0.0282,-0.0261,-0.0266,-0.0299,-0.0168,-0.0188,-0.0133,-0.0137,-0.0134,-0.0091,0.0065,0.0274,0.032,0.017,0.0292,-0.0154,0.015,0.0202,0.0279,0.026,0.0337,0.0331,0.0326,0.0323,0.032,-0.0302,-0.0282,-0.0202,-0.0144,-0.0151,-0.0246,-0.0318,-0.0308,-0.0228,-0.0247,-0.0176,-0.0253,-0.0262,-0.0233,-0.0158,-0.0061,-0.0243,0.0141,0.0082,-0.0308,-0.0227,-0.0227,-0.0225,0.0251,0.026,0.0267,0.0273,0,-0.0246,-0.013,-0.0139,-0.0137,-0.0139,-0.0239,-0.0307,-0.0322,-0.0331,-0.0247,-0.0238,-0.0299,-0.0398,-0.0387,-0.0488,-0.043,-0.0409,-0.0376,-0.0175,-0.0067,-0.0274,-0.0262,-0.0277,-0.0268,-0.0261,-0.0255,-0.0249,0,-0.0072,-0.0094,0.0007,-0.0007,-0.0105,-0.0234,-0.0349,-0.0377,-0.0322,-0.0303,-0.0349,-0.0358,-0.0463,-0.0459,-0.0497,-0.0468,-0.0567,-0.0535,-0.0452,-0.0293,-0.0253,-0.0571,-0.0547,-0.0777,-0.0777,-0.0776,-0.0776,0,0.0094,-0.0,0.0006,-0.0034,-0.0144,-0.0213,-0.0307,-0.0367,-0.0331,-0.0334,-0.0306,-0.0381,-0.0411,-0.049,-0.0503,-0.056,-0.0632,-0.0637,-0.0469,-0.045,-0.0215,-0.0167,-0.0776,-0.0776,-0.0775,-0.0775,-0.0775,0,0.0133,0.0178,0.0104,-0.0037,-0.0136,-0.0182,-0.0283,-0.0327,-0.0338,-0.0333,-0.0346,-0.0346,-0.0408,-0.0438,-0.0553,-0.0534,-0.0567,-0.0616,-0.0613,-0.0291,-0.0118,-0.01,-0.0075,-0.0519,-0.0517,-0.0516,-0.0514,0,0.0239,0.0209,0.0195,0.0061,-0.0068,-0.0152,-0.0218,-0.0258,-0.025,-0.0176,-0.0305,-0.0309,-0.0362,-0.0365,-0.0438,-0.0422,-0.0501,-0.0447,-0.0357,-0.0355,-0.0238,-0.0252,-0.0054,-0.0066,-0.0492,-0.0494,-0.0496,0,0.0309,0.0279,0.023,0.0172,0.0019,0.0017,-0.0114,-0.012,-0.0133,-0.0177,-0.0103,-0.0328,-0.0256,-0.0285,-0.0247,-0.031,-0.0451,-0.0272,-0.0266,-0.0425,-0.0514,-0.0252,-0.0242,-0.0417,-0.042,-0.0423,-0.0479,0,0.0449,0.0368,0.027,0.0241,0.0186,0.0058,0.0042,0.0025,0.0007,0.0108,-0.0024,-0.0119,-0.0066,-0.006,-0.0135,-0.0169,-0.015,-0.0061,-0.006,-0.007,-0.007,-0.0086,0.016,0.0164,0.0168,0.0171,0,0,0.0447,0.0526,0.0517,0.0444,0.039,0.038,0.0298,0.0295,0.0359,0.0353,0.0252,0.0238,0.0148,0.003,-0.0018,0.004,0.0026,-0.0011,0.001,-0.0009,-0.0026,-0.0035,-0.0054,0.0178,0.0179,0.0181,0.0182,0,0.0634,0.0563,0.0521,0.0522,0.0431,0.0486,0.0456,0.0545,0.0484,0.0417,0.0364,0.0251,0.0186,0.0128,0.0079,0.0077,0.0064,0.0156,0.0045,0.0043,0.0019,-0.0002,-0.0017,-0.0036,0.0191,0.0191,0.019,0,0.0707,0.0781,0.0787,0.085,0.0805,0.0761,0.085,0.0704,0.0713,0.0626,0.0514,0.043,0.0355,0.0196,0.0124,0.017,0.0115,0.0167,0.0157,0.0099,0.0096,0.0074,0.0054,0.0276,0.0274,0.0273,0,0,0.0781,0.0808,0.091,0.0897,0.0807,0.092,0.0898,0.0845,0.0768,0.0668,0.0628,0.0515,0.0376,0.0263,0.0157,0.0109,0.012,0.0155,0.0152,0.0147,0.0086,0.0084,0.0066,0.0266,0.0266,0.0265,0,0,0.0838,0.097,0.0989,0.0931,0.0992,0.1122,0.0931,0.1047,0.0857,0.0648,0.0592,0.0508,0.0257,0.0302,0.0216,0.0196,0.0254,0.0264,0.0039,0.0035,0.0033,-0.0059,0.0133,0,0,0,0,0,0.1099,0.1008,0.1029,0.1034,0.1114,0.1197,0.1197,0.1047,0.1016,0.0929,0.0699,0.0633,0.0226,0.014,0.0113,0.0092,0.0176,0.0192,0.0207,-0.0091,-0.0094,-0.0097,0,0,0,0,0,0,0.1103,0.1125,0.103,0.1181,0.1193,0.1202,0.1115,0.1082,0.1005,0.096,0.0699,0.0633,0.048,0.0151,0.0127,0.0109,0.0141,0.0182,0.0196,0.0208,-0.0092,-0.0095,-0.0097,0,0,0,0,0,0.1107,0.1124,0.1258,0.1178,0.1189,0.1042,0.1102,0.1071,0.0987,0.078,0.0711,0.0838,0.0497,0.0445,0.0136,0.0121,0.0157,0.0148,0.0191,0.0202,0.0211,-0.0093,0,0,0,0,0,0,0.1109,0.1133,0.1258,0.1257,0.103,0.1024,0.1013,0.1063,0.0799,0.0745,0.0913,0.0881,0.0511,0.0468,0.0432,0.0129,0.017,0.0161,0.0155,0.0199,0.0207,0.0215,0,0,0,0,0,0,0.1121,0.1135,0.1258,0.108,0.1058,0.1009,0.0999,0.0958,0.0786,0.0945,0.0914,0.0899,0.0425,0.0487,0.0456,0.0413,0.018,0.0171,0.0166,0.0162,0.0206,0.0212,0,0,0,0,0,0,0.1125,0.1136,0.108,0.1064,0.1043,0.1031,0.0955,0.0954,0.0884,0.0952,0.0843,0.0824,0.044,0.0413,0.0476,0.0449,0.0423,0.018,0.0174,0.017,0.0167,0,0,0,0,0,0,0,0.1128,0.1078,0.1247,0.105,0.1032,0.1243,0.1245,0.1246,0.088,0.0864,0.0847,0.0832,0.0228,0.0219,0.021,0.0478,0,0,0.018,0.0176,0,0,0,0,0,0,0,0,0.1071,0.1076,0.1246,0.1245,0.1244,0.1244,0.1245,0.1246,0.0877,0.0864,0.0851,0.0838,0.0226,0.0218,0.0211,0,0,0,0,0,0,0,0,0,0,0,0,0,0,0,0.1246,0.1245,0,0.1244,0.1245,0.1246,0.0876,0.0865,0.0854,0.0843,0.0224,0.0217,0.0211,0,0,0,0,0,0,0,0,0,0,0,0,0,0,0,0,0,0,0,0,0,0,0,0,0,0,0,0,0,0,0,0,0,0,0,0,0,0,0,0,0,0,0,0,0,0,0,0,0,0,0,0,0,0,0,0,0,0,0,0,0,0,0,0,0,0,0,0,0]}]],[[{"header":{"parameterUnit":"kt","parameterCategory":2,"dx":1,"dy":1,"la1":30.253999710083008,"la2":30.299108505249023,"lo1":-89.0895004272461,"lo2":-89.04439544677734,"nx":28,"ny":28,"refTime":"2022-09-24T21:00:00:Z","depth":"4","parameterNumber":2,"parameterNumberName":"U-component_of_CURRENTS"},"data":[-0.0815,-0.0858,-0.1037,-0.095,-0.1023,-0.1011,-0.1113,-0.1235,-0.1194,-0.1338,-0.131,-0.1423,-0.138,-0.1467,-0.1345,-0.1352,-0.1587,-0.1445,-0.1441,-0.1934,-0.1971,-0.2003,-0.2343,0,0,0,0,0,-0.1022,-0.107,-0.1185,-0.1442,-0.1472,-0.1588,-0.1649,-0.183,-0.1938,-0.1539,-0.1891,-0.1533,-0.1472,-0.1479,-0.1396,-0.1511,-0.1724,-0.141,-0.1825,-0.1957,-0.1997,-0.2315,0,0,0,0,0,0,-0.1337,-0.1428,-0.1692,-0.1908,-0.197,-0.1955,-0.2201,-0.2027,-0.213,-0.2219,-0.1948,-0.1923,-0.1962,-0.1893,-0.172,-0.1714,-0.1725,-0.1792,-0.1839,-0.1879,-0.2093,-0.1999,-0.1288,0,0,0,0,0,-0.1577,-0.184,-0.2006,-0.2295,-0.2419,-0.2524,-0.2664,-0.2685,-0.2805,-0.3016,-0.2648,-0.2618,-0.2221,-0.2202,-0.2118,-0.1961,-0.2492,-0.221,-0.2234,-0.258,-0.2532,-0.2342,-0.2376,-0.2152,-0.2157,-0.216,-0.2162,0,-0.1804,-0.1949,-0.2415,-0.2506,-0.2717,-0.3082,-0.308,-0.3474,-0.3405,-0.3474,-0.3231,-0.3156,-0.3098,-0.2569,-0.267,-0.2458,-0.2462,-0.2315,-0.2686,-0.2602,-0.2394,-0.242,-0.2442,-0.2195,-0.2192,-0.2189,-0.2187,0,-0.1855,-0.214,-0.2323,-0.2685,-0.2806,-0.3029,-0.3331,-0.3355,-0.3786,-0.3772,-0.3891,-0.3933,-0.3635,-0.3673,-0.3381,-0.3313,-0.302,-0.2819,-0.3182,-0.2961,-0.2495,-0.2505,-0.2248,-0.2236,-0.2226,-0.2218,-0.2211,0,-0.1966,-0.207,-0.2492,-0.2581,-0.2777,-0.2903,-0.319,-0.3347,-0.3657,-0.3643,-0.4091,-0.4071,-0.4313,-0.4107,-0.399,-0.3566,-0.3664,-0.3334,-0.3097,-0.3555,-0.3556,-0.3447,-0.3436,-0.3592,-0.3597,-0.3602,-0.3606,0,-0.1976,-0.2179,-0.2388,-0.2403,-0.2549,-0.2693,-0.2839,-0.3088,-0.3193,-0.3687,-0.3753,-0.419,-0.429,-0.4282,-0.4022,-0.4115,-0.3739,-0.3686,-0.3226,-0.3188,-0.347,-0.3451,-0.3611,-0.3612,-0.3613,-0.3615,-0.3617,0,-0.1977,-0.2139,-0.2367,-0.2423,-0.2441,-0.2578,-0.2717,-0.2857,-0.3172,-0.3333,-0.378,-0.3928,-0.4235,-0.4267,-0.4201,-0.4311,-0.4078,-0.3892,-0.3859,-0.3593,-0.3218,-0.3072,-0.3225,-0.3227,-0.3228,-0.3229,-0.323,0,-0.1895,-0.2138,-0.2168,-0.23,-0.2359,-0.2349,-0.2469,-0.2607,-0.2781,-0.3039,-0.3319,-0.3611,-0.3756,-0.3979,-0.4095,-0.3892,-0.3892,-0.4027,-0.3486,-0.3467,-0.3228,-0.3333,-0.3881,-0.3248,-0.3246,-0.3245,-0.3243,0,-0.1785,-0.1998,-0.2043,-0.2091,-0.2151,-0.2186,-0.2312,-0.2454,-0.2613,-0.2868,-0.3132,-0.3405,-0.3619,-0.371,-0.3826,-0.389,-0.386,-0.3793,-0.3782,-0.3516,-0.3612,-0.3366,-0.3327,-0.3856,-0.3861,-0.3865,-0.3256,0,-0.1773,-0.1883,-0.1932,-0.2052,-0.2086,-0.2149,-0.2224,-0.232,-0.2425,-0.2549,-0.2858,-0.2964,-0.3208,-0.3248,-0.3266,-0.3541,-0.3384,-0.3313,-0.3257,-0.3441,-0.312,-0.3112,-0.314,-0.3135,-0.3131,-0.3128,0,0,-0.162,-0.1756,-0.1791,-0.1873,-0.1905,-0.1969,-0.2046,-0.2125,-0.2268,-0.236,-0.2372,-0.2702,-0.27,-0.2985,-0.31,-0.3025,-0.2931,-0.324,-0.3342,-0.3366,-0.3389,-0.3099,-0.3096,-0.3121,-0.3119,-0.3118,-0.3117,0,-0.1599,-0.1629,-0.1743,-0.1779,-0.1908,-0.1933,-0.1976,-0.2081,-0.2153,-0.2291,-0.2308,-0.2457,-0.2598,-0.2695,-0.2749,-0.2952,-0.2864,-0.3023,-0.3376,-0.3306,-0.3336,-0.3361,-0.3084,-0.3083,-0.3107,-0.3107,-0.3108,0,-0.1491,-0.1563,-0.1621,-0.1723,-0.1797,-0.1864,-0.1871,-0.1972,-0.2061,-0.2042,-0.2202,-0.2252,-0.2301,-0.2474,-0.2555,-0.2537,-0.2773,-0.2781,-0.2802,-0.293,-0.2854,-0.2889,-0.292,-0.2516,-0.2515,-0.2514,0,0,-0.1464,-0.1547,-0.163,-0.1723,-0.1755,-0.1841,-0.1895,-0.1941,-0.1999,-0.2027,-0.2105,-0.2186,-0.2258,-0.2352,-0.2384,-0.2565,-0.2454,-0.2716,-0.2744,-0.2768,-0.2906,-0.2839,-0.2873,-0.2509,-0.2509,-0.2509,0,0,-0.1446,-0.1553,-0.1614,-0.1685,-0.1777,-0.1836,-0.1894,-0.1936,-0.1993,-0.2018,-0.2046,-0.2063,-0.2204,-0.2224,-0.2151,-0.2469,-0.2344,-0.2359,-0.2512,-0.2546,-0.2573,-0.2729,-0.2152,0,0,0,0,0,-0.1506,-0.1541,-0.1597,-0.1625,-0.1746,-0.1822,-0.1837,-0.1898,-0.1926,-0.1958,-0.1999,-0.2024,-0.2196,-0.2129,-0.2148,-0.2351,-0.2445,-0.2457,-0.2467,-0.2697,-0.2733,-0.2763,0,0,0,0,0,0,-0.1517,-0.1546,-0.1596,-0.1658,-0.1689,-0.1819,-0.1816,-0.183,-0.1923,-0.1929,-0.201,-0.2024,-0.203,-0.2122,-0.2139,-0.2334,-0.2147,-0.245,-0.2459,-0.2468,-0.2709,-0.2739,-0.2764,0,0,0,0,0,-0.1527,-0.155,-0.1734,-0.1657,-0.1684,-0.1782,-0.1814,-0.1827,-0.1893,-0.1951,-0.1967,-0.195,-0.2028,-0.2048,-0.2132,-0.2328,-0.2135,-0.2141,-0.2456,-0.2464,-0.247,-0.2723,0,0,0,0,0,0,-0.1534,-0.153,-0.174,-0.1751,-0.1663,-0.1776,-0.1793,-0.1824,-0.1911,-0.1929,-0.1887,-0.189,-0.2026,-0.2042,-0.2057,-0.233,-0.2126,-0.2132,-0.2136,-0.2462,-0.2468,-0.2473,0,0,0,0,0,0,-0.152,-0.1537,-0.1745,-0.1748,-0.1759,-0.177,-0.1786,-0.1849,-0.1911,-0.1837,-0.1845,-0.1888,-0.2032,-0.2038,-0.205,-0.2143,-0.2119,-0.2125,-0.2129,-0.2132,-0.2467,-0.2471,0,0,0,0,0,0,-0.1528,-0.1544,-0.1744,-0.1752,-0.1762,-0.1874,-0.1827,-0.1954,-0.19,-0.1831,-0.1902,-0.1902,-0.2029,-0.204,-0.2045,-0.2132,-0.214,-0.2119,-0.2123,-0.2126,-0.2128,0,0,0,0,0,0,0,-0.1535,-0.1418,-0.1698,-0.1756,-0.1764,-0.1857,-0.1858,-0.1859,-0.19,-0.1901,-0.1901,-0.1902,-0.2085,-0.2091,-0.2098,-0.2124,0,0,-0.2119,-0.2121,0,0,0,0,0,0,0,0,-0.1413,-0.1417,-0.1698,-0.1702,-0.1705,-0.1857,-0.1858,-0.1858,-0.19,-0.1901,-0.1901,-0.1902,-0.2087,-0.2092,-0.2097,0,0,0,0,0,0,0,0,0,0,0,0,0,0,0,-0.1698,-0.1701,0,-0.1857,-0.1858,-0.1858,-0.19,-0.1901,-0.1901,-0.1902,-0.2088,-0.2092,-0.2097,0,0,0,0,0,0,0,0,0,0,0,0,0,0,0,0,0,0,0,0,0,0,0,0,0,0,0,0,0,0,0,0,0,0,0,0,0,0,0,0,0,0,0,0,0,0,0,0,0,0,0,0,0,0,0,0,0,0,0,0,0,0,0,0,0,0,0,0,0]}],[{"header":{"parameterUnit":"kt","parameterCategory":2,"dx":1,"dy":1,"la1":30.253999710083008,"la2":30.299108505249023,"lo1":-89.0895004272461,"lo2":-89.04439544677734,"nx":28,"ny":28,"refTime":"2022-09-24T21:00:00:Z","depth":"4","parameterNumber":3,"parameterNumberName":"V-component_of_CURRENTS"},"data":[0.0766,0.0647,0.0476,0.0258,0.013,-0.0131,-0.0328,-0.0485,-0.0467,-0.0551,-0.0369,-0.0332,0.0023,-0.0187,0.0378,0.0441,0.1007,0.0812,0.0819,0.1774,0.1813,0.1848,0.1421,0,0,0,0,0,0.0752,0.0662,0.0411,0.0078,-0.0155,-0.0275,-0.0608,-0.0749,-0.087,-0.0799,-0.0743,-0.0541,-0.0153,-0.0027,0.0272,0.0296,0.1076,0.0653,0.1464,0.1798,0.1841,0.1412,0,0,0,0,0,0,0.0655,0.0546,0.0297,0.0023,-0.0241,-0.0457,-0.0627,-0.0702,-0.0764,-0.0704,-0.0741,-0.0463,-0.0275,0.0125,0.0443,0.0789,0.1023,0.1328,0.1393,0.1439,0.1023,0.0606,0.0611,0,0,0,0,0,0.0479,0.0437,0.0237,-0.0097,-0.0286,-0.0539,-0.0673,-0.0719,-0.0783,-0.0738,-0.0643,-0.0373,-0.0121,0.0372,0.0705,0.1177,0.1812,0.1799,0.1834,0.1961,0.172,0.1722,0.1702,0.2005,0.2011,0.2014,0.2016,0,0.0344,0.029,-0.006,-0.0217,-0.0301,-0.0468,-0.06,-0.068,-0.0725,-0.067,-0.0611,-0.0267,-0.0048,0.053,0.0966,0.1602,0.1641,0.1905,0.2036,0.1785,0.1784,0.1752,0.1719,0.2051,0.2048,0.2045,0.2043,0,0.0266,0.0122,-0.0054,-0.0332,-0.0421,-0.0511,-0.0674,-0.0762,-0.0656,-0.0623,-0.0439,-0.0141,0.0289,0.0724,0.1413,0.1626,0.2009,0.2025,0.2049,0.2068,0.1809,0.1761,0.2108,0.2095,0.2085,0.2076,0.2068,0,0.0095,0.0048,-0.0187,-0.0266,-0.0458,-0.0551,-0.0662,-0.0702,-0.0653,-0.0686,-0.0325,-0.0181,0.0559,0.0888,0.1327,0.1679,0.1974,0.191,0.194,0.2119,0.2075,0.223,0.2192,0.2522,0.2518,0.2515,0.2512,0,0.0124,-0.0092,-0.0204,-0.028,-0.0505,-0.0545,-0.0608,-0.0678,-0.0719,-0.05,-0.041,0.0027,0.0366,0.0896,0.1305,0.1392,0.1908,0.2037,0.1872,0.184,0.2197,0.2164,0.2509,0.2508,0.2507,0.2506,0.2505,0,0.0078,-0.0062,-0.0187,-0.0423,-0.0461,-0.0491,-0.0618,-0.0656,-0.0622,-0.056,-0.0323,-0.0103,0.0295,0.0449,0.1103,0.0997,0.1322,0.1515,0.1537,0.1194,0.1106,0.1556,0.171,0.1702,0.1695,0.1688,0.1682,0,0.0068,-0.0073,-0.0116,-0.0246,-0.0348,-0.0372,-0.0425,-0.0465,-0.0447,-0.0406,-0.0212,-0.0065,0.0105,0.0288,0.0533,0.0827,0.1065,0.0786,0.1462,0.1479,0.108,0.1138,0.1155,0.1582,0.1595,0.1604,0.1611,0,0.0092,-0.0054,-0.0037,-0.0131,-0.0167,-0.0215,-0.0248,-0.0295,-0.035,-0.02,-0.0178,-0.005,0.0135,0.0202,0.0343,0.0567,0.0903,0.0786,0.0803,0.0972,0.1548,0.1074,0.1088,0.1103,0.1113,0.1121,0.1542,0,0.0022,-0.002,-0.0038,-0.0081,-0.0109,-0.0139,-0.0146,-0.0146,-0.0106,-0.0096,-0.0019,0.0117,0.0248,0.0225,0.031,0.0518,0.0629,0.0671,0.0782,0.0823,0.0982,0.1036,0.0431,0.0433,0.0435,0.0436,0,0,0.0078,0.0026,0.0041,-0.0006,-0.0038,0.0016,-0.0038,-0.0015,0.0031,0.0016,0.0105,0.023,0.0272,0.0338,0.0368,0.035,0.0582,0.0501,0.0736,0.0768,0.0798,0.0957,0.1006,0.0439,0.0439,0.044,0.044,0,0.0066,0.0057,0.0041,0.0018,0.0024,0.0037,0.0025,0.0046,0.0081,0.0095,0.0175,0.0229,0.0321,0.0383,0.042,0.0373,0.0619,0.0418,0.0468,0.0738,0.0767,0.0795,0.0954,0.0998,0.0444,0.0444,0.0444,0,0.0077,0.0071,0.0067,0.0048,0.0071,0.0041,0.0098,0.0109,0.0097,0.0216,0.0252,0.032,0.0403,0.0454,0.0482,0.0525,0.0701,0.0554,0.0547,0.0622,0.0909,0.0939,0.0965,0.0649,0.0649,0.065,0,0,0.0077,0.0067,0.0057,0.0047,0.0042,0.0076,0.0087,0.0126,0.0171,0.0205,0.0285,0.0366,0.0411,0.047,0.0521,0.0557,0.0725,0.0576,0.0566,0.0558,0.0626,0.0909,0.0935,0.0651,0.0651,0.0651,0,0,0.0093,0.0079,0.0099,0.0067,0.0083,0.0115,0.0133,0.0152,0.0216,0.0247,0.0347,0.0378,0.0423,0.0489,0.0494,0.0571,0.0614,0.0614,0.0539,0.0528,0.0519,0.0592,0.0611,0,0,0,0,0,0.0097,0.0065,0.0082,0.0078,0.0088,0.0086,0.0094,0.0173,0.0203,0.0217,0.0296,0.0375,0.0528,0.0535,0.0552,0.0562,0.0669,0.0666,0.0663,0.0572,0.056,0.0549,0,0,0,0,0,0,0.0096,0.0089,0.0083,0.0101,0.0105,0.0087,0.0166,0.0187,0.0207,0.0225,0.0352,0.0378,0.047,0.0533,0.0547,0.0555,0.0607,0.0668,0.0665,0.0662,0.0568,0.0558,0.0549,0,0,0,0,0,0.0095,0.0089,0.0081,0.0105,0.0108,0.019,0.0171,0.0189,0.022,0.0333,0.0361,0.028,0.0464,0.0486,0.0542,0.0547,0.0598,0.0603,0.0666,0.0664,0.0662,0.0563,0,0,0,0,0,0,0.0094,0.0123,0.0085,0.0089,0.0141,0.0197,0.0207,0.019,0.0331,0.0354,0.0267,0.0279,0.046,0.0478,0.0493,0.054,0.0591,0.0596,0.0599,0.0664,0.0663,0.0661,0,0,0,0,0,0,0.0126,0.0125,0.0087,0.0129,0.014,0.0202,0.0211,0.0246,0.0335,0.0262,0.0273,0.0271,0.0459,0.0471,0.0484,0.0534,0.0585,0.059,0.0593,0.0595,0.0663,0.0662,0,0,0,0,0,0,0.0128,0.0128,0.0129,0.0137,0.0147,0.0211,0.024,0.0266,0.0309,0.0257,0.0321,0.0326,0.0451,0.0465,0.0477,0.052,0.0531,0.0585,0.0588,0.0591,0.0592,0,0,0,0,0,0,0,0.0129,0.0103,0.0048,0.0143,0.0152,0.013,0.0132,0.0134,0.0311,0.0315,0.032,0.0324,0.0558,0.0563,0.0569,0.0509,0,0,0.0585,0.0587,0,0,0,0,0,0,0,0,0.0106,0.0104,0.0049,0.0049,0.0049,0.0131,0.0132,0.0134,0.0311,0.0315,0.0319,0.0322,0.056,0.0564,0.0568,0,0,0,0,0,0,0,0,0,0,0,0,0,0,0,0.0049,0.0049,0,0.0131,0.0132,0.0134,0.0312,0.0315,0.0318,0.0321,0.0561,0.0564,0.0568,0,0,0,0,0,0,0,0,0,0,0,0,0,0,0,0,0,0,0,0,0,0,0,0,0,0,0,0,0,0,0,0,0,0,0,0,0,0,0,0,0,0,0,0,0,0,0,0,0,0,0,0,0,0,0,0,0,0,0,0,0,0,0,0,0,0,0,0,0]}]]]